Погода в Бас-Тере

Гваделупа     15°59′53″N   61°44′02″W
темп.,
°C
ветер,
м/с
пор.,
м/с
влажн.,
%
обл.,
%
осадки,
мм/ч
давл.,
гПа
погр.,
м
1 марта, пн
пн123:00+24св47704 0.1 10161117
02:00+23св35702 0.1 1013782
05:00+23св34744 0.1 1013422
08:00+24всв36734 0.3 1015878
11:00+25всв34695 0.3 1016925
14:00+25всв34685 0.7 1013931
17:00+25всв45716 0.4 1012924
20:00+23св56786 0.8 1013531
2 марта, вт
вт223:00+23св56777 0.1 1015584
02:00+22св45774 0.1 1013508
05:00+23св45752 0.1 1013616
08:00+23всв46732 0.1 1015741
11:00+25всв34665 0.0 1016764
14:00+26всв34642 0.0 1014751
17:00+25всв44693 0.1 1013819
20:00+24св45773 0.2 1015563
3 марта, ср
ср323:00+24всв56792 0.2 1016646
02:00+24всв56772 0.4 1015669
05:00+24в56783 0.3 1014800
08:00+24всв57752 0.6 1017982
11:00+25в57691 0.3 10171131
14:00+25в67681 0.4 1015989
17:00+25в67720 0.1 1014960
20:00+24в56770 0.1 1016778
4 марта, чт
чт423:00+24всв56790 0.1 1016664
02:00+24в67801 1.0 1015732
05:00+24в67823 0.3 1015675
08:00+24в678217 1.2 1017636
11:00+25вюв78788 0.6 1017849
14:00+26вюв67776 0.8 1015779
17:00+25в77784 0.3 1014760
20:00+25в78803 0.6 1015665
5 марта, пт
пт523:00+25в78811 0.1 1016725
02:00+24в78811 0.3 1014710
05:00+25в78781 0.1 1013813
08:00+25в79761 0.2 1015905
11:00+25вюв89759 0.1 1016979
14:00+26в77754 0.1 1013667
17:00+25вюв88804 0.1 1013736
20:00+25в68813 0.2 1014685